Location: Newark
(45.4422°N, 16.2769°E)
Time: 01:58:52
(UTC+00:00)

Tiros 1 despin weight - Pass Details

Date: 23 December 2019
Orbit: 594 x 642 km, 48.2° (Epoch: 27 January)

Event Time Altitude Azimuth Distance (km) Brightness Sun altitude
Rises 23:57:26 0° 245° (WSW) 2,926 - -64.5°
Reaches altitude 10° 23:59:46 10° 244° (WSW) 2,014 - -64.2°
Maximum altitude 00:04:24 80° 158° (SSE) 641 - -63.7°
Drops below altitude 10° 00:08:59 10° 72° (ENE) 1,991 - -63.2°
Sets 00:11:17 0° 71° (ENE) 2,890 - -62.9°
